Date String (YYYY-MM-DD hh:mm:ss) UTC,Instrument flags,absolute air pressure of the measurement (hPa),sample flow rate (lpm),inlet stack bypass flow (lpm),air temperature of the measurement (°C),ambient temperature measured by the external sensor (°C),aerosol sample conditioner tube jacket temperature (°C),OPC LED temperature (°C),internal box temperature (°C),relative humidity of the measurement (%),span deviation,mass concentration of particles derived from Lorenz-Mie calculation of OPC scattering (μg/m³),mass concentration of particles derived from Lorenz-Mie calculation of OPC scattering (μg/m³),mass concentration of particles derived from Lorenz-Mie calculation of OPC scattering (μg/m³)
DateTimeUTC,F1_M11,P_M11,Q1_M11,Q2_M11,T1_M11,T2_M11,T3_M11,T4_M11,T5_M11,U1_M11,ZSPAN_M11,X0_M11,X2_M11,X1_M11
2023-11-23 21:00:00,SystemResetWarning,0829.8,5.00,000.00,021.1,020.2,000.0,029.5,022.4,17.8,0000.0,0007.99,0003.66,0003.08
2023-11-23 21:01:00,SystemResetWarning,0829.8,5.01,000.00,021.1,020.2,000.0,029.5,022.3,17.8,0000.0,0008.35,0003.66,0003.08
2023-11-23 21:02:00,SystemResetWarning,0829.7,4.99,000.00,021.1,020.2,000.0,029.4,022.3,17.8,0000.0,0008.55,0003.63,0003.07
2023-11-23 21:03:00,SystemResetWarning,0829.7,4.99,000.00,021.1,020.2,000.0,029.5,022.3,17.8,0000.0,0008.15,0003.62,0003.07
2023-11-23 21:04:00,SystemResetWarning,0829.7,5.00,000.00,021.1,020.2,000.0,029.5,022.4,17.7,0000.0,0008.19,0003.62,0003.06
2023-11-23 21:05:00,SystemResetWarning,0829.7,5.01,000.00,021.1,020.2,000.0,029.4,022.3,17.7,0000.0,0008.84,0003.60,0003.04
2023-11-23 21:06:00,SystemResetWarning,0829.8,5.00,000.00,021.1,020.2,000.0,029.4,022.3,17.7,0000.0,0009.25,0003.59,0003.03
2023-11-23 21:07:00,SystemResetWarning,0829.8,5.00,000.00,021.1,020.2,000.0,029.4,022.3,17.7,0000.0,0009.32,0003.61,0003.01
2023-11-23 21:08:00,SystemResetWarning,0829.7,5.00,000.00,021.1,020.2,000.0,029.4,022.3,17.8,0000.0,0009.37,0003.58,0002.98
2023-11-23 21:09:00,SystemResetWarning,0829.7,5.00,000.00,021.1,020.2,000.0,029.4,022.3,17.8,0000.0,0009.84,0003.60,0002.98
2023-11-23 21:10:00,SystemResetWarning,0829.7,4.99,000.00,021.1,020.2,000.0,029.4,022.3,17.8,0000.0,0009.90,0003.63,0002.98
2023-11-23 21:11:00,SystemResetWarning,0829.8,5.00,000.00,021.1,020.2,000.0,029.4,022.3,17.8,0000.0,0009.99,0003.63,0002.98
2023-11-23 21:12:00,SystemResetWarning,0829.7,5.01,000.00,021.1,020.1,000.0,029.4,022.3,17.8,0000.0,0009.52,0003.64,0002.97
2023-11-23 21:13:00,SystemResetWarning,0829.7,5.00,000.00,021.1,020.1,000.0,029.4,022.4,17.8,0000.0,0009.00,0003.65,0002.98
2023-11-23 21:14:00,SystemResetWarning,0829.7,5.00,000.00,021.1,020.1,000.0,029.4,022.3,17.8,0000.0,0009.02,0003.67,0002.98
2023-11-23 21:15:00,SystemResetWarning,0829.7,5.00,000.00,021.0,020.1,000.0,029.4,022.3,17.8,0000.0,0009.13,0003.72,0003.00
2023-11-23 21:16:00,SystemResetWarning,0829.7,5.01,000.00,021.0,020.1,000.0,029.4,022.3,17.8,0000.0,0008.66,0003.74,0003.00
2023-11-23 21:17:00,SystemResetWarning,0829.7,4.99,000.00,021.0,020.1,000.0,029.4,022.3,17.9,0000.0,0008.15,0003.72,0003.01
2023-11-23 21:18:00,SystemResetWarning,0829.7,5.00,000.00,021.0,020.1,000.0,029.4,022.2,17.9,0000.0,0007.96,0003.71,0003.03
2023-11-23 21:19:00,SystemResetWarning,0829.8,5.00,000.00,021.0,020.1,000.0,029.4,022.2,17.9,0000.0,0007.83,0003.74,0003.06
2023-11-23 21:20:00,SystemResetWarning,0829.7,5.01,000.00,021.0,020.1,000.0,029.4,022.3,17.8,0000.0,0007.45,0003.75,0003.09
2023-11-23 21:21:00,SystemResetWarning,0829.7,5.00,000.00,021.0,020.1,000.0,029.4,022.3,17.8,0000.0,0007.41,0003.70,0003.09
2023-11-23 21:22:00,SystemResetWarning,0829.8,4.99,000.00,021.0,020.1,000.0,029.4,022.3,17.8,0000.0,0007.36,0003.68,0003.09
2023-11-23 21:23:00,SystemResetWarning,0829.7,5.01,000.00,021.0,020.1,000.0,029.4,022.3,17.9,0000.0,0007.66,0003.67,0003.09
2023-11-23 21:24:00,SystemResetWarning,0829.7,5.01,000.00,021.0,020.1,000.0,029.4,022.3,17.9,0000.0,0008.29,0003.68,0003.10
2023-11-23 21:25:00,SystemResetWarning,0829.7,5.00,000.00,021.0,020.1,000.0,029.4,022.3,17.9,0000.0,0008.47,0003.70,0003.11
2023-11-23 21:26:00,SystemResetWarning,0829.8,5.00,000.00,021.0,020.1,000.0,029.4,022.3,17.9,0000.0,0008.47,0003.65,0003.10
2023-11-23 21:27:00,SystemResetWarning,0829.7,5.01,000.00,021.0,020.1,000.0,029.4,022.3,17.8,0000.0,0008.52,0003.64,0003.11
2023-11-23 21:28:00,SystemResetWarning,0829.7,5.00,000.00,021.0,020.1,000.0,029.4,022.3,17.8,0000.0,0008.59,0003.65,0003.11
2023-11-23 21:29:00,SystemResetWarning,0829.7,5.00,000.00,021.0,020.1,000.0,029.4,022.3,17.9,0000.0,0008.48,0003.62,0003.10
2023-11-23 21:30:00,SystemResetWarning,0829.7,4.99,000.00,021.0,020.1,000.0,029.4,022.3,17.9,0000.0,0008.44,0003.62,0003.10
2023-11-23 21:31:00,SystemResetWarning,0829.7,4.99,000.00,021.0,020.1,000.0,029.4,022.2,17.9,0000.0,0008.38,0003.61,0003.09
2023-11-23 21:32:00,SystemResetWarning,0829.7,5.00,000.00,021.0,020.1,000.0,029.4,022.2,17.9,0000.0,0008.45,0003.63,0003.08
2023-11-23 21:33:00,SystemResetWarning,0829.7,5.00,000.00,021.0,020.1,000.0,029.4,022.3,17.9,0000.0,0008.47,0003.66,0003.10
2023-11-23 21:34:00,SystemResetWarning,0829.7,5.01,000.00,021.0,020.1,000.0,029.4,022.3,17.9,0000.0,0008.20,0003.64,0003.10
2023-11-23 21:35:00,SystemResetWarning,0829.7,5.00,000.00,021.0,020.1,000.0,029.4,022.2,18.0,0000.0,0007.56,0003.62,0003.09
2023-11-23 21:36:00,SystemResetWarning,0829.7,5.00,000.00,021.0,020.1,000.0,029.4,022.2,17.9,0000.0,0007.37,0003.59,0003.08
2023-11-23 21:37:00,SystemResetWarning,0829.7,5.00,000.00,021.0,020.1,000.0,029.4,022.2,17.9,0000.0,0007.30,0003.62,0003.09
2023-11-23 21:38:00,SystemResetWarning,0829.7,5.00,000.00,021.0,020.0,000.0,029.3,022.2,17.9,0000.0,0007.70,0003.65,0003.10
2023-11-23 21:39:00,SystemResetWarning,0829.7,5.00,000.00,021.0,020.0,000.0,029.3,022.2,18.0,0000.0,0008.14,0003.69,0003.10
2023-11-23 21:40:00,SystemResetWarning,0829.7,4.99,000.00,021.0,020.0,000.0,029.3,022.2,18.0,0000.0,0008.14,0003.67,0003.09
2023-11-23 21:41:00,SystemResetWarning,0829.7,4.99,000.00,021.0,020.0,000.0,029.3,022.2,18.0,0000.0,0008.18,0003.64,0003.09
2023-11-23 21:42:00,SystemResetWarning,0829.7,5.00,000.00,021.0,020.0,000.0,029.3,022.2,17.9,0000.0,0008.20,0003.64,0003.09
2023-11-23 21:43:00,SystemResetWarning,0829.7,5.00,000.00,021.0,020.1,000.0,029.3,022.2,17.9,0000.0,0008.29,0003.70,0003.10
2023-11-23 21:44:00,SystemResetWarning,0829.7,5.01,000.00,021.0,020.1,000.0,029.3,022.2,17.9,0000.0,0008.31,0003.70,0003.10
2023-11-23 21:45:00,SystemResetWarning,0829.7,4.99,000.00,021.0,020.1,000.0,029.3,022.2,17.9,0000.0,0008.36,0003.70,0003.09
2023-11-23 21:46:00,SystemResetWarning,0829.7,5.00,000.00,021.0,020.0,000.0,029.3,022.2,17.9,0000.0,0008.38,0003.71,0003.09
2023-11-23 21:47:00,SystemResetWarning,0829.7,5.00,000.00,021.0,020.0,000.0,029.3,022.3,17.8,0000.0,0008.84,0003.71,0003.09
2023-11-23 21:48:00,SystemResetWarning,0829.7,5.00,000.00,021.0,020.1,000.0,029.3,022.2,17.8,0000.0,0008.93,0003.69,0003.09
2023-11-23 21:49:00,SystemResetWarning,0829.7,5.00,000.00,021.0,020.1,000.0,029.3,022.2,17.8,0000.0,0008.63,0003.68,0003.10
2023-11-23 21:50:00,SystemResetWarning,0829.7,5.00,000.00,021.0,020.1,000.0,029.3,022.2,17.8,0000.0,0007.78,0003.63,0003.09
2023-11-23 21:51:00,SystemResetWarning,0829.7,4.99,000.00,021.0,020.1,000.0,029.3,022.3,17.8,0000.0,0007.88,0003.65,0003.10
2023-11-23 21:52:00,SystemResetWarning,0829.7,4.99,000.00,021.0,020.1,000.0,029.3,022.3,17.8,0000.0,0007.84,0003.67,0003.11
2023-11-23 21:53:00,SystemResetWarning,0829.7,5.01,000.00,021.0,020.1,000.0,029.3,022.3,17.8,0000.0,0007.93,0003.70,0003.12
2023-11-23 21:54:00,SystemResetWarning,0829.7,5.00,000.00,021.0,020.1,000.0,029.3,022.3,17.8,0000.0,0007.87,0003.68,0003.12
2023-11-23 21:55:00,SystemResetWarning,0829.7,5.00,000.00,021.0,020.1,000.0,029.3,022.2,17.7,0000.0,0007.90,0003.66,0003.12
2023-11-23 21:56:00,SystemResetWarning,0829.7,5.00,000.00,021.0,020.1,000.0,029.3,022.2,17.7,0000.0,0008.18,0003.66,0003.12
2023-11-23 21:57:00,SystemResetWarning,0829.7,5.00,000.00,021.0,020.1,000.0,029.3,022.2,17.7,0000.0,0008.43,0003.67,0003.13
2023-11-23 21:58:00,SystemResetWarning,0829.7,5.00,000.00,021.0,020.1,000.0,029.3,022.2,17.7,0000.0,0008.61,0003.70,0003.14
2023-11-23 21:59:00,SystemResetWarning,0829.8,5.01,000.00,021.0,020.1,000.0,029.3,022.2,17.7,0000.0,0008.86,0003.74,0003.14
